www.pogodaiklimat.ru

Погода и климат >> Архив погоды >> Чехия >> Простеёв


ПОГОДА в Простеёве

  • Прогноз погоды в Простеёве
  • Монитор погоды в Простеёве

АРХИВ ПОГОДЫ в Простеёве

Время (UTC), дата Ветер
(напр.,м/с)
 
Видим.   Явления Облачность Т
(С)
Тd
(С)
f
(%)
Тe
(С)
Тes
(С)
Комфортность P
(гПа)
Po
(гПа)
Тmin
(С)
Tmax
(С)
R
(мм)
R24
(мм)
S
(см)
19 8.09 штиль 0 10 км 10/10 750 м
[Sc]
+14.8 +14.7 99 +14 +14 1016.4 990.8
20 8.09 В 2 9000 м дымка 10/10 270 м
[St]
+14.9 +14.6 98 +15 +15 1016.0 990.4
21 8.09 В 2 5000 м дымка 10/10 210 м
[St]
+14.9 +14.7 99 +15 +15 1015.7 990.1
22 8.09 СВ 2 4000 м слаб. дождь 10/5 210 м
[Frnb As op]
+14.8 +14.6 99 +14 +14 1015.2 989.6
23 8.09 С 1 4000 м слаб. дождь 10/10 150 м
[Frnb]
+14.5 +14.3 99 +15 +15 1013.6 988.0
00 9.09 штиль 0 4000 м гроза, ливневой дождь 10/3 1050 м
[Cb cap As op]
+14.3 +14.3 100 +14 +14 1013.9 988.3 5
01 9.09 В 5 4000 м гроза, ливневой дождь 10/10 150 м
[Cb cap]
+14.8 +14.8 100 +13 +13 1012.5 987.0
02 9.09 В 5 10 км слаб. ливневой дождь, в посл. час гроза 10/6 180 м
[Frnb As op]
+15.0 +15.0 100 +13 +13 1011.9 986.4
03 9.09 В 1 20 км в посл. час дождь {гроза} 10/10 180 м
[Sc]
+14.6 +14.6 100 +15 +15 1011.4 985.9
04 9.09 В 1 20 км 10/10 1300 м
[Sc]
+14.7 +14.7 100 +15 +15 1010.6 985.1
05 9.09 С 1 20 км 10/10 1000 м
[Sc]
+15.0 +14.7 98 +15 +15 1009.5 984.1
07 9.09 С 1 15 км в посл. час гроза {дождь} 10/10 270 м
[Sc]
+15.0 +15.0 100 +15 +15 1009.3 983.9
08 9.09 штиль 0 15 км 9/6 900 м
[Sc Ac As]
+15.7 +15.2 97 +15 +17 1009.6 984.2
10 9.09 ЮЗ 5
{11}
15 км 9/9 330 м
[Cu Sc]
+15.6 +14.3 92 +14 +15 1009.9 984.5
11 9.09 ЮЗ 9
{12}
20 км 9/9 400 м
[Cu Sc]
+15.7 +13.0 84 +14 +14 1010.6 985.2
12 9.09 Ю 6
{13}
30 км {гроза, дождь} 9/9 480 м
[Cu Sc]
+16.4 +13.3 82 +15 +16 1010.8 985.5 2
13 9.09 ЮЗ 5 30 км 8/4 720 м
[Cu med, cong As op]
+17.3 +11.8 70 +17 +18 1009.9 984.6
14 9.09 ЮЗ 5 30 км 9/9 1050 м
[Sc]
+16.7 +10.1 65 +16 +16 1010.5 985.2
15 9.09 ЮЗ 4 30 км 9/9 1320 м
[Sc]
+16.5 +11.6 73 +16 +16 1010.4 985.1
16 9.09 ЮЗ 3 30 км 10/10 1300 м
[Sc]
+16.0 +11.8 76 +16 +16 1011.1 985.7
17 9.09 ЮЗ 3 25 км 10/10 1350 м
[Sc]
+15.6 +11.4 76 +15 +15 1011.1 985.7
18 9.09 ЮЗ 4 20 км 9/9 1410 м
[Sc]
+14.9 +11.5 80 +14 +14 1011.6 986.1 +17.4 2
19 9.09 ЮЗ 7 15 км 9/9 1410 м
[Sc]
+14.9 +9.7 71 +13 +13 1012.2 986.7
20 9.09 ЮЗ 4
{11}
15 км 8/5 1470 м
[Sc Ac trans]
+13.9 +9.7 76 +12 +12 1013.0 987.4
21 9.09 ЮЗ 4
{11}
15 км 8/3 1500 м
[Sc Ac trans]
+13.5 +9.6 77 +12 +12 1013.7 988.0
22 9.09 ЮЗ 4 15 км 8/4 1000 м
[Sc Ac trans]
+12.8 +9.6 81 +11 +11 1013.8 988.0
23 9.09 ЮЗ 4 15 км 9/9 1300 м
[Sc]
+12.2 +9.8 85 +10 +10 1014.3 988.5
00 10.09 ЮЗ 5
{11}
10 км 10/10 900 м
[Sc]
+12.2 +9.9 86 +10 +10 1015.0 989.2
01 10.09 ЮЗ 4 10 км 6/6 1500 м
[Sc]
+11.6 +9.8 89 +9 +9 1015.6 989.7
02 10.09 ЮВ 2 10 км 5/5 1080 м
[Sc]
+10.4 +9.8 96 +9 +9 1016.5 990.5
03 10.09 ЮЗ 4 10 км 3/0
[Ac As]
+10.0 +9.5 97 +7 +7 1017.0 990.9
04 10.09 В 1 15 км 1/0
[Ac As]
+9.0 +8.7 98 +8 +8 1017.5 991.3
05 10.09 ЮВ 1 20 км 4/0
[Ac As Ci fib]
+9.7 +8.9 95 +9 +9 1018.2 992.0
06 10.09 Ю 3 30 км 8/3 1410 м
[Sc Ci fib]
+12.3 +10.7 90 +11 +11 1018.6 992.7 +8.6
07 10.09 Ю 4 30 км 5/0
[Ci fib]
+14.1 +11.6 85 +13 +15 1019.0 993.2
08 10.09 Ю 4 30 км 5/0
[Ci fib]
+15.6 +12.0 79 +15 +18 1019.1 993.5
09 10.09 ЮЗ 4 30 км 4/1 800 м
[Cu hum Ci fib]
+17.8 +11.4 66 +18 +22 1019.0 993.6
10 10.09 Ю 6 30 км 3/1 870 м
[Cu hum Ci fib]
+18.4 +10.8 61 +18 +22 1019.1 993.7
11 10.09 ЮЗ 6 30 км 4/1 960 м
[Cu hum Ci fib]
+18.5 +10.2 58 +18 +22 1019.3 993.9
12 10.09 ЮЗ 4
{12}
30 км 6/5 1080 м
[Cu hum Ci fib]
+19.4 +11.4 60 +21 +24 комфорт 1019.3 994.0
13 10.09 Ю 6
{11}
30 км 6/5 1170 м
[Cu hum Ci fib]
+19.8 +12.1 61 +21 +23 комфорт 1019.2 993.9
14 10.09 Ю 5 30 км 6/5 1260 м
[Cu hum Ci fib]
+19.8 +13.0 65 +21 +23 комфорт 1019.2 993.9
15 10.09 Ю 4
{11}
30 км 5/4 1350 м
[Cu hum Ci fib]
+19.3 +13.0 67 +21 +22 комфорт 1019.3 994.0
16 10.09 Ю 3 30 км 6/5 1500 м
[Cu hum Ci fib]
+18.2 +13.3 73 +19 +19 1019.8 994.4
17 10.09 Ю 2 30 км 5/4 1500 м
[Sc diur, vesp Ci fib]
+17.2 +12.9 76 +18 +18 1020.0 994.5
18 10.09 ЮЗ 1
{11}
30 км 6/3 1500 м
[Sc Ci fib]
+15.6 +12.3 81 +16 +16 1020.6 994.9 +20.1
19 10.09 штиль 0 30 км 5/0
[Ci fib]
+13.6 +12.0 90 +13 +13 1021.2 995.3
20 10.09 штиль 0 30 км 3/0
[Ci fib]
+12.9 +12.4 97 +12 +12 1021.6 995.7
21 10.09 штиль 0 30 км 3/0
[Ci fib]
+12.3 +12.0 98 +12 +12 1022.1 996.1
22 10.09 штиль 0 30 км 1/0
[Ci fib]
+11.5 +11.5 100 +11 +11 1022.4 996.3
23 10.09 СЗ 1 30 км 1/0
[Ci fib]
+11.4 +11.1 98 +11 +11 1022.7 996.6
00 11.09 штиль 0 20 км 1/0
[Ci fib]
+9.8 +9.5 98 +9 +9 1022.9 996.6
01 11.09 С 1 20 км 1/0
[Ci fib]
+9.8 +9.5 98 +9 +9 1023.2 996.9
02 11.09 СЗ 2 20 км ясно +9.8 +9.5 98 +8 +8 1023.1 996.8
03 11.09 штиль 0 20 км 1/0
[Ci fib]
+8.9 +8.6 98 +8 +8 1023.2 996.8
04 11.09 штиль 0 10 км туман поземный 1/0
[Ci fib]
+8.7 +8.7 100 +8 +8 1023.5 997.1
05 11.09 З 1 10 км 8/0
[Ac trans Ci sp]
+9.1 +9.0 99 +8 +8 1024.0 997.6
06 11.09 штиль 0 15 км 8/0
[Ac trans Ci sp]
+12.0 +11.5 97 +11 +13 1024.3 998.2 +7.9
07 11.09 С 1 30 км 5/0
[Ci sp]
+14.4 +12.0 85 +15 +18 1024.3 998.4
08 11.09 В 1 30 км 4/0
[Ac As Ci fib]
+16.5 +12.1 75 +17 +22 1024.4 998.7
09 11.09 ЮВ 1 30 км 4/0
[Ac As Ci fib]
+18.5 +12.7 69 +20 +27 1024.4 998.9
10 11.09 ЮВ 2 30 км 5/1 930 м
[Cu hum Ac As Ci fib]
+19.9 +12.7 63 +22 +29 комфорт 1024.0 998.6
11 11.09 ЮВ 2 30 км 4/3 1050 м
[Cu hum Ci fib]
+20.9 +12.6 59 +24 +31 комфорт 1023.7 998.4
12 11.09 Ю 2 30 км 4/4 1300 м
[Cu hum]
+21.0 +13.2 61 +24 +30 комфорт 1023.5 998.2
13 11.09 ЮВ 1 30 км 5/5 1380 м
[Cu hum Ci sp]
+22.0 +13.9 60 +25 +30 комфорт 1023.1 997.9
14 11.09 ЮВ 1 30 км 4/4 1500 м
[Cu hum Ci sp]
+22.4 +12.2 52 +25 +28 комфорт 1022.7 997.6
15 11.09 ЮВ 2 30 км 3/1 1500 м
[Cu hum Ci sp]
+22.4 +11.8 51 +25 +27 комфорт 1022.7 997.6
16 11.09 штиль 0 30 км 1/0
[Ci sp]
+22.8 +10.6 46 +25 +26 комфорт 1022.8 997.7
17 11.09 штиль 0 30 км 1/0
[Ci sp]
+19.6 +12.6 64 +21 +21 комфорт 1023.2 997.8
18 11.09 ЮЗ 1 30 км 1/0
[Ac trans]
+17.0 +13.7 81 +18 +18 1024.1 998.5 +23.1
19 11.09 СЗ 1 30 км 1/0
[Ac trans]
+15.4 +13.0 86 +16 +16 1024.7 998.9
20 11.09 З 1 30 км ясно +14.8 +12.7 87 +15 +15 1025.2 999.3
21 11.09 штиль 0 30 км ясно +12.4 +11.6 95 +12 +12 1025.7 999.6
22 11.09 С 2 30 км ясно +12.6 +11.0 90 +12 +12 1026.2 1000.1
23 11.09 штиль 0 30 км ясно +11.8 +10.8 94 +11 +11 1026.4 1000.2
00 12.09 штиль 0 30 км ясно +10.7 +10.2 97 +10 +10 1026.6 1000.3
01 12.09 З 2 30 км ясно +9.7 +9.5 99 +8 +8 1027.0 1000.6
02 12.09 штиль 0 30 км ясно +9.5 +9.4 99 +9 +9 1027.2 1000.8
03 12.09 штиль 0 30 км 5/5 1410 м
[Sc]
+9.7 +9.7 100 +9 +9 1027.5 1001.1
04 12.09 штиль 0 30 км 1/1 1410 м
[Sc]
+10.2 +10.2 100 +9 +9 1028.0 1001.6
05 12.09 штиль 0 30 км ясно +9.5 +9.5 100 +9 +9 1028.4 1002.0
06 12.09 штиль 0 10 км ясно +13.4 +11.7 89 +13 +14 1028.8 1002.7 +9.0
07 12.09 штиль 0 10 км ясно +15.0 +12.9 87 +15 +19 1029.4 1003.5
08 12.09 Ю 1 15 км ясно +16.8 +13.9 83 +18 +24 1029.6 1003.8
10 12.09 Ю 2 20 км ясно +20.9 +13.4 62 +24 +34 комфорт 1029.1 1003.7
11 12.09 ЮВ 2 20 км 3/3 1170 м
[Cu hum]
+21.8 +12.1 54 +24 +31 комфорт 1028.7 1003.4
12 12.09 ЮВ 1 20 км 4/4 1300 м
[Cu hum]
+22.2 +11.0 49 +24 +31 комфорт 1028.6 1003.3
13 12.09 С 2 20 км 4/4 1440 м
[Cu hum]
+23.7 +9.3 40 +25 +29 комфорт 1028.0 1002.8
14 12.09 З 3 20 км 5/5 1500 м
[Cu hum]
+23.6 +10.6 44 +25 +27 комфорт 1027.9 1002.7
15 12.09 СЗ 3 20 км 5/5 1500 м
[Cu hum]
+23.3 +12.3 50 +26 +27 жарко 1027.9 1002.7
16 12.09 СЗ 5 20 км 5/5 1500 м
[Sc diur, vesp]
+21.7 +12.5 56 +24 +24 комфорт 1028.1 1002.8
17 12.09 СЗ 3 20 км 4/3 1500 м
[Sc diur, vesp Ci fib]
+20.2 +13.6 66 +23 +23 комфорт 1028.8 1003.3
18 12.09 СЗ 1 20 км 4/3 1500 м
[Sc Ci fib]
+18.4 +13.9 75 +20 +20 1029.2 1003.6 +23.9
19 12.09 З 2 20 км 5/5 1500 м
[Sc]
+15.9 +13.6 86 +16 +16 1030.0 1004.1
20 12.09 З 1 20 км 4/0
[Ac trans]
+15.4 +14.1 92 +16 +16 1030.2 1004.3
21 12.09 З 1 20 км 6/0
[Ac trans]
+15.1 +13.5 90 +16 +16 1030.3 1004.4
22 12.09 З 1 20 км 8/0
[Ac trans]
+14.9 +13.6 92 +15 +15 1030.3 1004.3
23 12.09 В 2 20 км 8/0
[Ac trans]
+14.0 +13.5 97 +13 +13 1030.3 1004.3
00 13.09 штиль 0 15 км 6/0
[Ac trans]
+13.4 +13.4 100 +13 +13 1030.3 1004.2
01 13.09 З 1 20 км 6/0
[Ac trans]
+13.3 +13.3 100 +13 +13 1030.2 1004.1
02 13.09 штиль 0 30 км 4/0
[Ac trans]
+12.0 +12.0 100 +11 +11 1030.3 1004.1
03 13.09 штиль 0 10 км 3/0
[Ac trans]
+11.6 +11.4 99 +11 +11 1030.1 1003.8
04 13.09 СЗ 1 8000 м дымка 3/0
[Ac trans]
+11.1 +10.9 99 +11 +11 1030.2 1003.9
05 13.09 штиль 0 8000 м дымка 4/4 1500 м
[Sc]
+11.5 +11.5 100 +11 +11 1030.6 1004.3
06 13.09 штиль 0 8000 м дымка 1/1 1500 м
[Sc]
+14.0 +13.2 95 +14 +15 1030.5 1004.4 +10.2
07 13.09 СВ 1 10 км 4/4 1500 м
[Sc]
+15.8 +14.2 90 +16 +19 1030.3 1004.4
08 13.09 ЮВ 1 15 км 1/1 1500 м
[Sc]
+17.9 +15.1 84 +19 +25 1030.1 1004.4
09 13.09 ЮВ 1 20 км 3/3 1500 м
[Sc]
+19.7 +15.1 75 +23 +29 комфорт 1029.5 1004.0
10 13.09 В 1 20 км 4/4 1500 м
[Sc]
+21.0 +16.2 74 +26 +32 душно 1029.2 1003.8
11 13.09 СЗ 1 20 км 5/5 1080 м
[Cu med, cong]
+22.8 +15.1 62 +27 +33 душно 1028.7 1003.5
12 13.09 СВ 3 30 км 6/6 1200 м
[Cu med, cong]
+22.8 +15.2 62 +27 +30 душно 1028.4 1003.2
13 13.09 СЗ 2 30 км 8/8 1320 м
[Cu med, cong]
+23.1 +13.8 56 +27 +28 душно 1028.3 1003.1
14 13.09 СЗ 3 30 км 9/9 1500 м
[Sc diur, vesp]
+22.5 +14.8 62 +26 +27 жарко 1028.1 1002.9
15 13.09 СЗ 5 30 км 9/9 1500 м
[Sc diur, vesp]
+23.2 +14.9 60 +27 +27 душно 1028.2 1003.0
16 13.09 СЗ 4 30 км 6/0
[Ac As]
+22.3 +15.0 63 +26 +26 жарко 1028.2 1002.9
17 13.09 СЗ 4 30 км 3/0
[Ac trans]
+21.0 +14.7 67 +24 +24 комфорт 1028.4 1003.0
18 13.09 З 3 30 км 1/0
[Ac trans]
+18.0 +14.7 81 +18 +18 1029.2 1003.5 +24.1
19 13.09 штиль 0 30 км 4/0
[Ac trans]
+16.7 +14.2 85 +17 +17 1029.5 1003.7
20 13.09 СЗ 3 30 км 4/0
[Ac trans]
+17.1 +14.4 84 +17 +17 1029.4 1003.7
22 13.09 СЗ 3 30 км 1/0
[Ci fib]
+16.4 +14.1 86 +16 +16 1030.0 1004.2
23 13.09 С 4 30 км 1/0
[Ci fib]
+16.0 +14.1 88 +15 +15 1030.9 1005.0
00 14.09 С 2 30 км 6/0
[Ac und]
+15.4 +13.4 88 +15 +15 1031.4 1005.5
01 14.09 С 1 30 км 9/5 1110 м
[Sc Ac As]
+15.3 +13.7 90 +16 +16 1031.6 1005.6
02 14.09 С 1 20 км 10/10 1000 м
[Sc]
+15.7 +13.4 86 +16 +16 1031.8 1005.9
03 14.09 СВ 1 20 км 10/10 1000 м
[Sc]
+15.1 +12.6 85 +16 +16 1031.8 1005.8
04 14.09 СВ 1 20 км 9/9 960 м
[Sc]
+14.1 +11.6 85 +14 +14 1032.1 1006.0
05 14.09 С 2 20 км 9/9 1080 м
[Sc]
+14.3 +10.9 80 +14 +14 1032.5 1006.4
06 14.09 С 3 20 км 4/4 1080 м
[Sc]
+14.7 +10.3 75 +14 +14 1033.3 1007.2 +14.1
07 14.09 СВ 4 30 км 1/1 630 м
[Cu hum]
+15.6 +10.6 72 +15 +17 1033.3 1007.3
08 14.09 С 3 30 км 1/1 840 м
[Cu hum]
+16.2 +10.2 68 +16 +20 1033.7 1007.7
09 14.09 СВ 3 30 км 4/4 1140 м
[Cu hum]
+16.0 +8.0 59 +16 +20 1033.4 1007.4
10 14.09 С 3 30 км 4/4 1320 м
[Cu hum]
+17.5 +7.5 52 +18 +22 1032.8 1007.0
11 14.09 СВ 3 30 км 3/3 1440 м
[Cu hum Ci fib]
+18.2 +6.7 47 +18 +24 1032.7 1006.9
12 14.09 С 3 20 км 1/1 1500 м
[Cu hum Ci fib]
+18.6 +7.7 49 +19 +26 1032.0 1006.3
13 14.09 СВ 4 30 км 1/1 1500 м
[Cu hum Ci fib]
+19.2 +8.0 48 +20 +24 1031.6 1005.9
14 14.09 СВ 2 30 км 1/1 1500 м
[Cu hum Ci fib]
+19.4 +8.2 48 +21 +25 комфорт 1030.8 1005.2
15 14.09 СВ 2 30 км 3/1 1500 м
[Cu hum Ci sp]
+19.1 +6.9 45 +20 +22 1030.1 1004.5
16 14.09 В 2 30 км 5/0
[Ci]
+18.5 +7.6 49 +19 +20 1029.6 1003.9
17 14.09 В 2 30 км 3/0
[Ci fib]
+16.2 +8.0 58 +16 +16 1029.9 1004.0
18 14.09 штиль 0 30 км 3/0
[Ci fib]
+13.6 +8.4 71 +13 +13 1030.6 1004.5 +19.5
19 14.09 штиль 0 30 км ясно +13.0 +8.1 72 +13 +13 1031.0 1004.8
20 14.09 СЗ 1 30 км ясно +12.0 +8.9 81 +12 +12 1031.1 1004.8
21 14.09 СЗ 2 30 км ясно +10.2 +8.6 90 +9 +9 1031.7 1005.2
22 14.09 С 2 30 км ясно +10.1 +8.3 89 +9 +9 1031.3 1004.8
23 14.09 штиль 0 30 км ясно +8.6 +7.4 92 +8 +8 1031.0 1004.4
00 15.09 СЗ 1 20 км ясно +8.3 +7.6 95 +7 +7 1030.6 1004.0
01 15.09 СЗ 1 20 км ясно +8.1 +7.1 93 +7 +7 1029.9 1003.3
02 15.09 С 1 20 км ясно +7.2 +6.7 97 +6 +6 1029.7 1003.0
03 15.09 штиль 0 20 км ясно +6.2 +6.1 99 +5 +5 1029.5 1002.7
04 15.09 штиль 0 15 км ясно +5.7 +5.7 100 +4 +4 1029.1 1002.3
05 15.09 З 1 15 км ясно +5.7 +5.6 99 +4 +4 1029.2 1002.4
06 15.09 штиль 0 20 км ясно +9.8 +7.7 87 +9 +10 1028.8 1002.4 +5.4
07 15.09 штиль 0 30 км ясно +11.4 +8.4 82 +11 +15 1028.2 1001.9
08 15.09 В 1 30 км 1/0
[Ci fib]
+13.0 +9.1 77 +13 +19 1027.4 1001.3
09 15.09 Ю 2 30 км 1/0
[Ci fib]
+16.0 +9.2 64 +16 +24 1026.4 1000.6
10 15.09 ЮЗ 6 30 км 3/0
[Ci fib]
+19.3 +9.5 53 +20 +23 1025.5 1000.0
11 15.09 Ю 7
{11}
30 км 3/0
[Ci fib]
+20.3 +9.8 51 +21 +24 комфорт 1024.3 998.9
12 15.09 Ю 7
{11}
30 км 3/0
[Ci fib]
+21.1 +11.4 54 +23 +25 комфорт 1023.3 998.0
13 15.09 ЮЗ 7 30 км 3/0
[Ci fib]
+21.9 +11.3 51 +24 +26 комфорт 1022.5 997.3
14 15.09 ЮЗ 7 30 км 4/0
[Ci fib]
+22.0 +11.7 52 +24 +25 комфорт 1021.8 996.6
15 15.09 ЮЗ 5 30 км 4/0
[Ci fib]
+22.1 +11.2 50 +24 +25 комфорт 1020.9 995.8
16 15.09 ЮЗ 5 30 км 5/0
[Ci fib]
+21.3 +11.3 53 +23 +23 комфорт 1020.5 995.3
17 15.09 ЮЗ 3 30 км 5/0
[Ci fib]
+18.9 +11.9 64 +20 +20 1020.4 995.0
18 15.09 Ю 2 20 км 5/0
[Ci fib]
+16.3 +12.1 76 +16 +16 1020.6 995.0 +22.3
19 15.09 ЮВ 1 20 км 6/0
[Ci fib]
+15.7 +12.1 79 +16 +16 1020.6 994.9

 

Местоположение метеостанции Простеёв (Чехия): широта 49.45 долгота 17.13 высота над уровнем моря 216 м.

В архиве по умолчанию представлена погода в Простеёве за последнюю неделю. Архивные данные за месяц целиком и за предыдущие месяцы, начиная с января 2011 года, Вы можете получить, выбрав интересующий диапазон дат из раскрывающегося списка и нажав кнопку "Ввод!".


*Определитесь, кто Вы:
робот инопланетянин человек

Внимание! Время в таблицах - всемирное. Для получения местного времени необходимо прибавить поправку, которая равна 1 ч.

Смотрите также архив погоды в соседних городах и на ближайших метеорологических станциях:

Погода в Луке (Чехия) (26 км)
Погода в Холесове (Чехия) (35 км)
Погода в Брно (Чехия) (46 км)
Погода в Червене (Чехия) (47 км)
Погода в Хосталкова, Маруска (Чехия) (51 км)
Погода в Остраве (Чехия) (76 км)
Погода в Усти-над-Орлици (Чехия) (78 км)
Погода в Замке Namest nad Oslav (Чехия) (80 км)
Погода на Шераке (Чехия) (81 км)
Погода на АЭС Дукованы (Чехия) (82 км)

Пояснения к столбцам:

Ветер - указаны скорость ветра в м/с - средняя за 10 мин, порывы в срок и между сроками (в фигурных скобках) и направление, откуда дует ветер: С - северный, СВ - северо-восточный, В - восточный, ЮВ - юго-восточный, Ю - южный, ЮЗ - юго-западный, З - западный, СЗ - северо-западный.
Видимость - горизонтальная дальность видимости в метрах или километрах. При видимости от 1 до 10 км при отсутствии осадков обычно наблюдается дымка, при ухудшении видимости до 1 км и менее - туман. В сухую погоду видимость может ухудшаться дымом, пылью или мглою.
Явления - указаны атмосферные явления, наблюдавшиеся в срок или в последний час перед сроком; фигурными скобками обозначены явления, наблюдавшиеся между сроками (за 1-3 часа до срока); квадратными скобками обозначены град или гололедные отложения с указанием их диаметра в мм.
Облачность - указаны через наклонную черту общая и нижняя облачность в баллах и высота нижней границы облаков в метрах; квадратными скобками обозначены формы облаков: Ci - перистые, Cs - перисто-слоистые, Cc - перисто-кучевые, Ac - высококучевые, As - высокослоистые, Sc - слоисто-кучевые, Ns - слоисто-дождевые, Cu - кучевые, Cb - кучево-дождевые. Подробнее классификацию облаков см. в Атласе облаков (PDF).
T - Температура воздуха - температура, измеренная на высоте 2 м над землей.
Td - Температура точки росы - температура, при понижении до которой содержащийся в воздухе водяной пар достигнет насыщения.
f - Относительная влажность воздуха - влажноcть воздуха, измеренная на высоте 2 м над землей.
Te - Эффективная температура - температура, которую ощущает одетый по сезону человек в тени. Характеристика душности погоды. При расчете учитывается влияние влажности воздуха и скорости ветра на теплоощущения человека.
Tes - Эффективная температура на солнце - температура, которую ощущает человек, с поправкой на солнечный нагрев. Характеристика знойности погоды. Зависит от высоты солнца над горизонтом, облачности и скорости ветра. Ночью, в пасмурную погоду, а также при ветре 12 м/с и более поправка равна нулю.
P - Атмосферное давление - приведенное к уровню моря атмосферное давление.
Po - Атмосферное давление - измеренное на уровне метеостанции атмосферное давление.
Tmin - Минимальная температура - минимум температуры воздуха на высоте 2 м над землей.
Tmax - Максимальная температура - максимум температуры воздуха на высоте 2 м над землей.
R - Количество осадков - Количество выпавших осадков за период времени, мм. При наведении курсора мыши на число - период времени, за который выпало указанное количество осадков.
R24 - Количество осадков - Количество выпавших осадков за 24 часа, мм.
S - Снежный покров - Высота снежного покрова, см. При наведении курсора мыши на число - состояние снежного покрова и степень покрытия местности в баллах.